User: anonymous   Login
Location: Chatou
(48.8898°N, 2.1586°E)
Time: 08:46:02
(UTC+00:00)
Language:

LilacSat-2 - Orbit

View from above orbital plane
View from above orbital plane
View from above satellite
View from above satellite

Ground track
Ground track

The orbit data is extracted from the following two-line orbital elements,

1 40908U 15049K   23339.87325254  .00007360  00000-0  32089-3 0  9997
2 40908  97.5281 342.7805 0011894 318.1693  41.8633 15.22417994453896
Epoch (UTC): 05 December 2023 20:57:29
Eccentricity: 0.0011894
inclination: 97.5281°
perigee height: 490 km
apogee height: 507 km
right ascension of ascending node: 342.7805°
argument of perigee: 318.1693°
revolutions per day: 15.22417994
mean anomaly at epoch: 41.8633°
orbit number at epoch: 45389

The dashed part of the orbit path shows where the satellite is in the earth's shadow,  

DLR